Regional Weather Roundup
Issued by NWS

Home | Current Version | Previous Version | Graphics & Text | Print | Product List | Glossary On
Versions: 1 2 3 4 5 6 7 8 9 10 11 12 13 14 15 16 17 18 19 20 21 22 23 24 25 26 27 28 29 30 31 32 33 34 35 36 37 38 39 40 41 42 43 44 45 46 47 48 49 50
000
ASUS43 KIND 221409
RWRIN

WEATHER ROUNDUP FOR INDIANA
NATIONAL WEATHER SERVICE INDIANAPOLIS IN
900 AM EST SAT NOV 22 2014

NOTE: "FAIR" INDICATES FEW OR NO CLOUDS BELOW 12,000 FEET WITH NO
SIGNIFICANT WEATHER AND/OR OBSTRUCTIONS TO VISIBILITY.

* - STATION DOES NOT REPORT WEATHER SUCH AS PRECIPITATION OR FOG.

+ - STATION NOT QUALITY CONTROLLED BY THE NATIONAL WEATHER SERVICE.
    USE DATA WITH CAUTION...ESPECIALLY DEWPOINT AND RELATIVE
    HUMIDITY OBSERVATIONS.

INZ001>003-010>013-019-020-221500-
NORTHWEST INDIANA

CITY           SKY/WX    TMP DP  RH WIND       PRES   REMARKS
GARY /AIRPORT/ CLOUDY    37  34  87 S8G20     30.06F
KNOX *+        CLOUDY    34  33  95 S6        30.08F WCI  29
LA PORTE +     LGT RAIN  36  36 100 S6        30.08F
MICHIGAN CITY+ CLOUDY    36  32  87 S12       30.07F
MONTICELLO +   LGT RAIN  39  36  89 S9        30.10F
RENSSELAER +   CLOUDY    39  37  93 S10       30.09S
VALPARAISO     LGT RAIN  35  33  92 S7        30.08F FOG     WCI  29

$$

LMZ046-743>745-221500-
SOUTHERN LAKE MICHIGAN

STATION/POSITION TIME  TEMP WIND        PRES
                       AIR  DIR/SP/G
                 (UTC) (F)  (DEG/KT/KT) (MB)
MICHIGAN CITY    1400   36  170/ 12/ 18   N/A

$$

INZ004-005-014>016-021>024-221500-
NORTH CENTRAL INDIANA

CITY           SKY/WX    TMP DP  RH WIND       PRES   REMARKS
ELKHART        CLOUDY    36  32  87 SW6       30.09F
GOSHEN         CLOUDY    37  33  85 S8        30.09F
LOGANSPORT +   LGT RAIN  37  34  87 S10       30.12S
PERU/GRISSOM   CLOUDY    39  39 100 S14       30.12S
ROCHESTER +    CLOUDY    41  37  87 SW10G17   30.11F
SOUTH BEND     CLOUDY    36  32  85 S10       30.08F
WARSAW +       CLOUDY    36  34  93 S3        30.10F FOG

$$

INZ006>009-017-018-025>027-221500-
NORTHEAST INDIANA

CITY           SKY/WX    TMP DP  RH WIND       PRES   REMARKS
ANGOLA *+      CLOUDY    36  34  93 S7        30.10S
AUBURN +       CLOUDY    36  32  87 CALM      30.12S FOG
FORT WAYNE     CLOUDY    39  35  86 SW14      30.14S
HUNTINGTON +   MIX PCPN  39  35  83 SW10G17   30.13S

$$

INZ028-029-035-036-043>045-051>053-221500-
WEST CENTRAL INDIANA

CITY           SKY/WX    TMP DP  RH WIND       PRES   REMARKS
GREENCASTLE +  CLOUDY    45  36  70 S10G16    30.18R
LAFAYETTE      CLOUDY    41  37  86 S3        30.12F
TERRE HAUTE    CLOUDY    46  35  65 S12       30.18S

$$

INZ030>032-037>040-046>048-054>057-064-065-221500-
CENTRAL INDIANA

CITY           SKY/WX    TMP DP  RH WIND       PRES   REMARKS
ANDERSON       CLOUDY    39  32  75 S13       30.18
CP ATTERBURY + CLOUDY    37  32  81 S7        30.22S
COLUMBUS       CLOUDY    37  32  81 S10       30.23F
FRANKFORT +    PTSUNNY   40  36  84 S8        30.15S
INDIANAPOLIS   NOT AVBL
-EAGLE CREEK   CLOUDY    41  34  76 SE5       30.17F
KOKOMO *+      PTSUNNY   39  34  81 S13       30.14S
MARION +       CLOUDY    37  32  82 SW15      30.15F
MT COMFORT *+  MOSUNNY   37  27  65 S10       30.19S
SHELBYVILLE    CLOUDY    38  31  76 S12       30.21S
ZIONSVILLE +   CLOUDY    39  32  76 S9        30.16S

$$

INZ033-034-041-042-049-050-058-059-221500-
EAST CENTRAL INDIANA

CITY           SKY/WX    TMP DP  RH WIND       PRES   REMARKS
MUNCIE         CLOUDY    43  34  70 S14G24    30.16F

$$

INZ060-061-067>069-081>083-085>088-221500-
SOUTHWEST INDIANA

CITY           SKY/WX    TMP DP  RH WIND       PRES   REMARKS
EVANSVILLE     LGT RAIN  52  40  63 S12       30.24F
HUNTINGBURG *+ MOSUNNY   48  37  66 S16       30.24F
WASHINGTON +   CLOUDY    44  39  82 S12       30.21S

$$

INZ062-063-066-070>080-084-089>092-221500-
SOUTH CENTRAL AND SOUTHEAST INDIANA

CITY           SKY/WX    TMP DP  RH WIND       PRES   REMARKS
BLOOMINGTON    CLOUDY    43  37  79 SE9       30.20F

$$



USA.gov is the U.S. government's official web portal to all federal, state and local government web resources and services.